Regional Weather Roundup
Issued by NWS

Home | Current Version | Previous Version | Text Only | Print | Product List | Glossary On
Versions: 1 2 3 4 5 6 7 8 9 10 11 12 13 14 15 16 17 18 19 20 21 22 23 24 25 26 27 28 29 30 31 32 33 34 35 36 37 38 39 40 41 42 43 44 45 46 47 48 49 50
000
ASUS46 KLOX 272212
RWRCA

SOUTHERN CALIFORNIA WEATHER ROUNDUP
NATIONAL WEATHER SERVICE OXNARD CALIFORNIA
300 PM PDT FRI MAR 27 2015

NOTE: "FAIR" INDICATES FEW OR NO CLOUDS BELOW 12,000 FEET WITH NO
SIGNIFICANT WEATHER AND/OR OBSTRUCTIONS TO VISIBILITY.

  -  STATIONS PRECEEDED BY AN ASTERISK (*) ARE NOT NWS OR FAA
     STATIONS AND ARE NOT SUBJECT TO NWS AND FAA QUALITY CONTROL.

CAZ041-042-087-272300-
LA AND ORANGE COUNTY COASTAL AREAS


CITY           SKY/WX    TMP DP  RH WIND       PRES   REMARKS
L.A. DOWNTOWN  SUNNY     81  53  37 VRB5      30.02S
L.A. AIRPORT   SUNNY     73  55  53 W13       30.04F
LONG BEACH     SUNNY     86  41  20 S7        30.01F

CITY           SKY/WX    TMP DP  RH WIND       PRES   REMARKS
AVALON           N/A    N/A N/A N/A MISG        N/A
FULLERTON      SUNNY     89  45  21 SW9       30.00F
*GETTY CENTER    N/A    N/A N/A N/A SW12        N/A
HAWTHORNE      SUNNY     79  51  37 W15       30.03F
*LEO CARRILLO    N/A     75  53  46 W10         N/A
*LOS ALAMITOS  SUNNY     82  51  33 SW13      30.01F
*REDONDO BEACH   N/A     74  62  65 CALM      30.04F
SANTA ANA      SUNNY     82  44  26 SW9       30.01F
STA MONICA APT SUNNY     77  48  35 SW12      30.03F
TORRANCE       SUNNY     79  59  50 NW12      30.02F
*UCLA            N/A     79  45  29 SW6       30.00F

$$

CAZ547-548-048-272300-
LA COUNTY VALLEYS AND INLAND EMPIRE


CITY           SKY/WX    TMP DP  RH WIND       PRES   REMARKS
BURBANK        SUNNY     91  36  14 S13       30.01F
VAN NUYS       SUNNY     91  38  15 S9        30.01F

CITY           SKY/WX    TMP DP  RH WIND       PRES   REMARKS
CORONA AIRPORT CLEAR     92  35  13 W12       30.01F
CHINO          SUNNY     94  36  13 SW14      30.01F
MARCH AFB      SUNNY     89  29  11 W7        30.04F
*NORTHRIDGE      N/A     91  25   9 W7G14       N/A
ONTARIO        SUNNY     91  31  11 W12       30.02F
*PASADENA        N/A     91  39  16 E8          N/A
POMONA         SUNNY     90  28  11 SW14      30.06F
RIVERSIDE      SUNNY     93  30  10 W13       30.01F
SAN BERNARDINO SUNNY     91  28  10 W10       30.02F
*SAUGUS          N/A     89  28  11 SW3G16      N/A
*WHITEMAN AP   SUNNY     91  28  10 W9        30.05
*WOODLAND HILL   N/A     91  28  10 SW7         N/A

$$

CAZ054-055-272300-
LA AND SAN BERNARDINO COUNTY MOUNTAINS


CITY           SKY/WX    TMP DP  RH WIND       PRES   REMARKS
*BIG BEAR AIRP CLEAR     64  23  20 N8        30.32F
*CHILAO          N/A     75  31  20 SW8G21      N/A
MT WILSON NWS    N/A    N/A N/A N/A MISG        N/A
SANDBERG       SUNNY     82  22  11 S13G21    30.22F
*WARM SPRINGS    N/A     82  24  12 SE3         N/A

$$

CAZ028-029-059-060-099-272300-
ANTELOPE VALLEY AND SURROUNDING AREAS


CITY           SKY/WX    TMP DP  RH WIND       PRES   REMARKS
LANCASTER      SUNNY     86  27  11 SW7       30.09F
PALMDALE       SUNNY     87  27  11 N7        30.10F
*POPPY PARK      N/A     89  25  10 SW7G21      N/A

CITY           SKY/WX    TMP DP  RH WIND       PRES   REMARKS
29 PALMS       SUNNY     86  24  10 CALM      30.13F
BARSTOW/DAGGET SUNNY     89  20   8 N7        30.06F
BISHOP         SUNNY     84  20   9 S10G23    30.11F
CHINA LAKE     SUNNY     87  27  11 SE5       30.07F
EDWARDS AFB    SUNNY     86  21   9 SW8       30.07F
MOJAVE         FAIR      84  25  11 SW3       30.11F
NEEDLES        SUNNY     93  18   6 VRB3      30.01F
VICTORVILLE    SUNNY     84  21  10 NE8       30.11F

$$

CAZ039-040-272300-
VENTURA AND SANTA BARBARA COUNTY COAST


CITY           SKY/WX    TMP DP  RH WIND       PRES   REMARKS
CAMARILLO      SUNNY     80  48  32 W12       30.04F
NWS OXNARD       N/A     76  52  43 CALM      30.03F
OXNARD AIRPORT SUNNY     71  57  61 W16       30.05F
*POINT MUGU    SUNNY     73  53  49 W16       30.05F
SBA APT/GOLETA SUNNY     77  51  40 SW7       30.04F
*SANTA BARBARA   N/A     83  50  31 CALM      30.12F
*VENTURA         N/A     78  50  36 SW6       30.08S

$$

CAZ044-045-272300-
VENTURA COUNTY VALLEYS


CITY           SKY/WX    TMP DP  RH WIND       PRES   REMARKS
*SIMI VALLEY     N/A     88  42  19 SW5       29.97F
*OJAI            N/A     92  45  19 CALM      29.96F
*FILLMORE        N/A     90  46  21 W8        29.91F

$$

CAZ053-272300-
VENTURA COUNTY MOUNTAINS


CITY           SKY/WX    TMP DP  RH WIND       PRES   REMARKS
*LOCKWOOD VLY    N/A     75  19  12 MISG        N/A
*ROSE VALLEY     N/A     79  32  18 MISG        N/A

$$

CAZ034-035-036-272300-
CENTRAL COAST AND SANTA YNEZ VALLEY


CITY           SKY/WX    TMP DP  RH WIND       PRES   REMARKS
SAN LUIS OBISP SUNNY     70  51  51 NW17      30.08S
SANTA MARIA    SUNNY     69  53  56 NW14      30.10F

CITY           SKY/WX    TMP DP  RH WIND       PRES   REMARKS
*CAL POLY SLO    N/A     72  54  53 NW9         N/A
*LOMPOC        SUNNY     63  52  67 W15       30.11S
*PISMO BEACH     N/A     60  54  79 SW6       30.11S
*SANTA YNEZ    FAIR      88  41  19 NW13      30.05F

$$

CAZ037-038-051-272300-
SAN LUIS OBISPO COUNTY INTERIOR AND CUYAMA VALLEY


CITY           SKY/WX    TMP DP  RH WIND       PRES   REMARKS
*CUYAMA          N/A     84  36  17 CALM      29.99F
PASO ROBLES    SUNNY     89  34  14 VRB6      30.05F

$$

CAZ032-033-061-272300-
SOUTHERN DESERTS


CITY           SKY/WX    TMP DP  RH WIND       PRES   REMARKS
BLYTHE         SUNNY     92  26   9 E5        29.99F
IMPERIAL       SUNNY     94  29  10 N5        29.95F
PALM SPRINGS   SUNNY     97  24   7 E10       29.98F HX  90
THERMAL        SUNNY     96  22   7 VRB6      29.93F HX  90

$$

ELSEWHERE ACROSS THE WESTERN UNITED STATES AND MEXICO


CITY           SKY/WX    TMP DP  RH WIND       PRES   REMARKS
DENVER, CO     MOSUNNY   68  29  23 NW9       30.09F
GRAND CANYON,  SUNNY     71   7   8 VRB7      30.29F
HONOLULU, HI   MOSUNNY   81  57  44 E17       30.16F
KAHULUI, MAUI  MOSUNNY   81  64  57 E20G30    30.16F
LAKE TAHOE, CA SUNNY     68  25  19 SW8G17    30.27F
LAS VEGAS, NV  SUNNY     85  23  10 VRB7      30.04F
MAMMOTH LAKES, FAIR      70  19  14 W21G26    30.30F
MEXICO CITY, M PTSUNNY   64  46  52 SE9       30.29F
PHOENIX, AZ    SUNNY     92  17   6 W5        29.99F
PORTLAND, OR   PTSUNNY   71  54  54 S10       30.01F
RENO, NV       SUNNY     78  21  12 S15G24    30.15F
SALT LAKE CITY MOSUNNY   70  31  23 W3        30.20F
SAN DIEGO, CA  SUNNY     79  54  41 W6        30.02F
SAN FRANCISCO, MOSUNNY   62  55  77 W21       30.15F
SAN JOSE, CA   MOSUNNY   68  54  60 NW16      30.12F
SEATTLE, WA    PTSUNNY   64  51  62 W10       29.98F
TIJUANA, MEX   SUNNY     82  43  24 W12       30.04F

$$

STATION/POSITION TIME  TEMP    WIND        PRES    VSBY  WAVE
                       AIR SEA DIR/SP/G                  HT/PER
                 (UTC) (F)     (DEG/KT/KT) (MB)    (MI)  (FT/S)
POINT ARGUELLO B NOT AVBL
WEST SANTA BARBA 2200   56 61  310/ 21/ 27 1017.9F         6/11
POINT CONCEPTION NOT AVBL
EAST SANTA BARBA NOT AVBL
SANTA MONICA BAY 2200   63 64  280/ 10/ 12 1017.7F         3/16


USA.gov is the U.S. government's official web portal to all federal, state and local government web resources and services.